Погода в Гангтоке

Индия     27°19′25″N   88°36′34″E
темп.,
°C
ветер,
м/с
пор.,
м/с
влажн.,
%
обл.,
%
осадки,
мм/ч
давл.,
гПа
погр.,
м
8 марта, пн
пн823:30+12с227080 0.1 101832
02:30+11с117257 0.0 101623
05:30+11ссв127076 0.1 101723
08:30+20ююз114137 0.0 1019765
11:30+23ю223331 0.1 10172009
14:30+18юз224687 0.1 1013780
17:30+15ссв345893 0.2 1014200
20:30+14с2262100 0.0 101763
9 марта, вт
вт923:30+12ссв226261 0.0 101724
02:30+12ссв22573 0.0 101530
05:30+11ссв125518 0.0 101725
08:30+21з013580 0.0 1018658
11:30+25ююз212750 0.0 10162027
14:30+22зюз323349 0.0 10132232
17:30+19ссв224273 0.0 101435
20:30+15ссв335359 0.0 101764
10 марта, ср
ср1023:30+14ссв235235 0.0 101736
02:30+13ссв235012 0.0 101637
05:30+13ссв235133 0.0 101666
08:30+23юз11300 0.0 1017609
11:30+26ю22231 0.0 10162619
14:30+22ююв233376 0.0 10132262
17:30+17с345688 1.0 1014167
20:30+14с466586 0.6 1017230
11 марта, чт
чт1123:30+13с336246 0.6 101762
02:30+12с23560 0.0 101647
05:30+12ссв23541 0.0 101739
08:30+23ссз112823 0.0 1019588
11:30+27ююз222111 0.0 10172794
14:30+21сз333856 0.2 10141346
17:30+18юз115147 0.4 101523
20:30+15ссв335213 0.0 101850
12 марта, пт
пт1223:30+15ссв33426 0.0 101953
02:30+14ссв23420 0.0 101844
05:30+12ссв12460 0.0 101928
08:30+23юз01250 0.0 1019503
11:30+28ююз21200 0.0 10171891
14:30+28ю33230 0.0 10142790
17:30+21ююв22399 0.0 101525
20:30+19с125373 0.6 101831